N400ES KBGR-KTEB

Flight info

Callsign N400ES
Flight time N/A
Altitude 40000
Route CLOWW WITNY HFD/N0376F160 V3 CMK V623 SAX
Aircraft CL60/M-SADE3FGHIJ3J4J7P2RWXY/HB1D1

Departure

Time 2026-05-04 20:46
Airport Bangor International Airport (KBGR)

Arrival

Time N/A
Airport Teterboro Airport (KTEB)
Time Latitude Longitude Altitude Speed Heading
2026-05-04 20:19 44.80403 -68.81332 152 ft 0 kts 291°
2026-05-04 20:41 44.80400 -68.81351 152 ft 5 kts 240°
2026-05-04 20:42 44.80354 -68.81407 152 ft 10 kts 200°
2026-05-04 20:42 44.80304 -68.81334 152 ft 13 kts 109°
2026-05-04 20:42 44.80239 -68.81249 154 ft 14 kts 173°
2026-05-04 20:42 44.80135 -68.81238 154 ft 12 kts 199°
2026-05-04 20:43 44.80110 -68.81256 154 ft 4 kts 200°
2026-05-04 20:43 44.80064 -68.81227 154 ft 9 kts 132°
2026-05-04 20:43 44.80013 -68.81152 156 ft 11 kts 137°
2026-05-04 20:43 44.79948 -68.81059 155 ft 15 kts 135°
2026-05-04 20:44 44.79852 -68.81000 153 ft 13 kts 206°
2026-05-04 20:44 44.79780 -68.81092 154 ft 13 kts 224°
2026-05-04 20:44 44.79756 -68.81125 155 ft 0 kts 225°
2026-05-04 20:44 44.79754 -68.81127 155 ft 2 kts 225°
2026-05-04 20:45 44.79723 -68.81190 156 ft 13 kts 248°
2026-05-04 20:45 44.79716 -68.81328 158 ft 14 kts 299°
2026-05-04 20:45 44.79876 -68.81557 158 ft 81 kts 315°
2026-05-04 20:45 44.80535 -68.82504 238 ft 176 kts 310°
2026-05-04 20:46 44.81510 -68.83868 859 ft 223 kts 312°
2026-05-04 20:46 44.82834 -68.85614 1384 ft 279 kts 314°
2026-05-04 20:46 44.84235 -68.87421 2740 ft 283 kts 312°
2026-05-04 20:46 44.85581 -68.89240 4723 ft 264 kts 310°
2026-05-04 20:47 44.86839 -68.90988 6041 ft 265 kts 309°
2026-05-04 20:47 44.88203 -68.92818 7189 ft 276 kts 313°
2026-05-04 20:47 44.89658 -68.94550 8541 ft 275 kts 314°
2026-05-04 20:47 44.91117 -68.96259 9694 ft 279 kts 314°
2026-05-04 20:48 44.92592 -68.98032 10786 ft 280 kts 310°
2026-05-04 20:48 44.93583 -69.00319 11797 ft 276 kts 284°
2026-05-04 20:48 44.93566 -69.03028 12884 ft 287 kts 257°
2026-05-04 20:48 44.92508 -69.05460 14074 ft 306 kts 231°
2026-05-04 20:49 44.90686 -69.07160 15145 ft 325 kts 216°
2026-05-04 20:49 44.88647 -69.08607 16245 ft 331 kts 215°
2026-05-04 20:49 44.86528 -69.10064 17334 ft 334 kts 215°
2026-05-04 20:49 44.84410 -69.11510 18290 ft 339 kts 214°
2026-05-04 20:50 44.82250 -69.13010 19176 ft 341 kts 219°
2026-05-04 20:50 44.80423 -69.15042 19989 ft 334 kts 232°
2026-05-04 20:50 44.78717 -69.17392 20677 ft 344 kts 233°
2026-05-04 20:50 44.76983 -69.19766 21415 ft 352 kts 232°
2026-05-04 20:51 44.75203 -69.22200 22083 ft 359 kts 233°
2026-05-04 20:51 44.73409 -69.24649 22833 ft 364 kts 232°
2026-05-04 20:51 44.71581 -69.27143 23487 ft 371 kts 233°
2026-05-04 20:51 44.69707 -69.29695 24232 ft 375 kts 233°
2026-05-04 20:52 44.67822 -69.32262 24891 ft 380 kts 233°
2026-05-04 20:52 44.65910 -69.34866 25465 ft 387 kts 233°
2026-05-04 20:52 44.63955 -69.37524 26029 ft 392 kts 233°
2026-05-04 20:52 44.61981 -69.40207 26554 ft 398 kts 233°
2026-05-04 20:53 44.59982 -69.42919 27107 ft 402 kts 233°
2026-05-04 20:53 44.57953 -69.45670 27670 ft 405 kts 233°
2026-05-04 20:53 44.55910 -69.48438 28139 ft 410 kts 233°
2026-05-04 20:53 44.53851 -69.51225 28558 ft 416 kts 233°
2026-05-04 20:54 44.51754 -69.54061 28959 ft 421 kts 233°
2026-05-04 20:54 44.49613 -69.56953 29440 ft 424 kts 233°
2026-05-04 20:54 44.47481 -69.59827 29910 ft 427 kts 233°
2026-05-04 20:54 44.45348 -69.62703 30249 ft 432 kts 233°
2026-05-04 20:55 44.43158 -69.65654 30623 ft 436 kts 232°
2026-05-04 20:55 44.40973 -69.68591 31025 ft 439 kts 232°
2026-05-04 20:55 44.38766 -69.71555 31359 ft 442 kts 232°
2026-05-04 20:55 44.36562 -69.74506 32071 ft 434 kts 232°
2026-05-04 20:56 44.34410 -69.77377 33033 ft 418 kts 231°
2026-05-04 20:56 44.32326 -69.80156 33854 ft 403 kts 231°
2026-05-04 20:56 44.30334 -69.82817 34468 ft 394 kts 231°
2026-05-04 20:56 44.28386 -69.85423 34927 ft 389 kts 231°
2026-05-04 20:57 44.26440 -69.88029 35233 ft 389 kts 231°
2026-05-04 20:57 44.24455 -69.90687 35415 ft 391 kts 231°
2026-05-04 20:57 44.22482 -69.93323 35617 ft 392 kts 230°
2026-05-04 20:57 44.20517 -69.95945 35867 ft 392 kts 230°
2026-05-04 20:58 44.18544 -69.98574 36090 ft 392 kts 230°
2026-05-04 20:58 44.16569 -70.01202 36329 ft 391 kts 230°
2026-05-04 20:58 44.14606 -70.03813 36530 ft 391 kts 229°
2026-05-04 20:58 44.12624 -70.06445 36771 ft 390 kts 229°